EZY49WJ EGJJ-EGGW

Flight info

Callsign EZY49WJ
Flight time 0h 53m
Altitude 27000
Route ORIST L982 TELTU
Aircraft A320/M-SDE3FGHIRWY/LB1

Departure

Time 2026-05-05 21:28
Airport Jersey Airport (EGJJ)

Arrival

Time 2026-05-05 22:22
Airport London Luton Airport (EGGW)
Time Latitude Longitude Altitude Speed Heading
2026-05-05 20:51 49.20560 -2.19807 281 ft 0 kts 172°
2026-05-05 21:18 49.20572 -2.19810 284 ft 2 kts 171°
2026-05-05 21:18 49.20587 -2.19813 281 ft 2 kts 169°
2026-05-05 21:18 49.20603 -2.19818 281 ft 2 kts 144°
2026-05-05 21:19 49.20606 -2.19838 288 ft 2 kts 90°
2026-05-05 21:19 49.20605 -2.19863 284 ft 2 kts 83°
2026-05-05 21:19 49.20604 -2.19869 285 ft 0 kts 82°
2026-05-05 21:21 49.20605 -2.19863 285 ft 3 kts 82°
2026-05-05 21:21 49.20609 -2.19805 285 ft 8 kts 84°
2026-05-05 21:21 49.20615 -2.19720 281 ft 8 kts 84°
2026-05-05 21:21 49.20639 -2.19668 281 ft 6 kts 31°
2026-05-05 21:22 49.20674 -2.19613 281 ft 10 kts 93°
2026-05-05 21:22 49.20695 -2.19498 281 ft 12 kts 62°
2026-05-05 21:22 49.20703 -2.19347 281 ft 18 kts 104°
2026-05-05 21:22 49.20679 -2.19175 282 ft 14 kts 85°
2026-05-05 21:23 49.20695 -2.19042 282 ft 12 kts 86°
2026-05-05 21:23 49.20699 -2.18927 282 ft 10 kts 86°
2026-05-05 21:23 49.20704 -2.18832 282 ft 8 kts 85°
2026-05-05 21:23 49.20711 -2.18752 282 ft 7 kts 83°
2026-05-05 21:24 49.20717 -2.18688 282 ft 5 kts 82°
2026-05-05 21:24 49.20721 -2.18637 282 ft 4 kts 82°
2026-05-05 21:24 49.20725 -2.18600 282 ft 3 kts 82°
2026-05-05 21:24 49.20727 -2.18574 282 ft 2 kts 82°
2026-05-05 21:25 49.20731 -2.18528 282 ft 9 kts 82°
2026-05-05 21:25 49.20744 -2.18386 283 ft 15 kts 82°
2026-05-05 21:25 49.20794 -2.18322 283 ft 0 kts 359°
2026-05-05 21:27 49.20795 -2.18322 283 ft 2 kts 357°
2026-05-05 21:27 49.20845 -2.18352 284 ft 10 kts 327°
2026-05-05 21:27 49.20891 -2.18447 280 ft 10 kts 263°
2026-05-05 21:27 49.20876 -2.18623 281 ft 41 kts 261°
2026-05-05 21:28 49.20802 -2.19522 283 ft 127 kts 263°
2026-05-05 21:28 49.20652 -2.21163 565 ft 165 kts 264°
2026-05-05 21:28 49.20478 -2.22879 1523 ft 168 kts 265°
2026-05-05 21:28 49.20288 -2.24719 1899 ft 188 kts 271°
2026-05-05 21:29 49.20582 -2.26700 2190 ft 200 kts 307°
2026-05-05 21:29 49.21690 -2.28049 2514 ft 216 kts 346°
2026-05-05 21:29 49.23241 -2.27999 2931 ft 237 kts 15°
2026-05-05 21:29 49.24868 -2.27291 3697 ft 246 kts 17°
2026-05-05 21:30 49.26514 -2.26497 4647 ft 250 kts 18°
2026-05-05 21:30 49.28180 -2.25677 5574 ft 253 kts 18°
2026-05-05 21:30 49.29879 -2.24846 6458 ft 258 kts 18°
2026-05-05 21:30 49.31608 -2.24010 7292 ft 262 kts 17°
2026-05-05 21:31 49.33363 -2.23174 8160 ft 266 kts 17°
2026-05-05 21:31 49.35149 -2.22331 9024 ft 270 kts 17°
2026-05-05 21:31 49.36967 -2.21475 9841 ft 276 kts 17°
2026-05-05 21:31 49.38819 -2.20602 10612 ft 280 kts 17°
2026-05-05 21:32 49.40694 -2.19719 11409 ft 283 kts 17°
2026-05-05 21:32 49.42586 -2.18825 12206 ft 286 kts 17°
2026-05-05 21:32 49.44499 -2.17921 12996 ft 289 kts 17°
2026-05-05 21:32 49.46432 -2.17007 13776 ft 292 kts 17°
2026-05-05 21:33 49.47745 -2.16386 14244 ft 294 kts 17°
2026-05-05 21:33 49.49717 -2.15454 14924 ft 297 kts 17°
2026-05-05 21:33 49.51704 -2.14515 15589 ft 301 kts 17°
2026-05-05 21:33 49.53720 -2.13561 16244 ft 305 kts 17°
2026-05-05 21:34 49.55733 -2.12606 16890 ft 308 kts 17°
2026-05-05 21:34 49.57823 -2.11612 17554 ft 312 kts 17°
2026-05-05 21:34 49.59910 -2.10617 18218 ft 316 kts 17°
2026-05-05 21:34 49.62018 -2.09613 18778 ft 319 kts 17°
2026-05-05 21:35 49.64151 -2.08598 19352 ft 322 kts 17°
2026-05-05 21:35 49.66299 -2.07576 19924 ft 324 kts 17°
2026-05-05 21:35 49.68463 -2.06545 20496 ft 327 kts 17°
2026-05-05 21:35 49.70622 -2.05517 21050 ft 330 kts 17°
2026-05-05 21:36 49.72826 -2.04465 21609 ft 332 kts 17°
2026-05-05 21:36 49.75049 -2.03403 22115 ft 336 kts 17°
2026-05-05 21:36 49.77296 -2.02327 22653 ft 340 kts 17°
2026-05-05 21:36 49.79517 -2.01025 23141 ft 346 kts 25°
2026-05-05 21:37 49.81676 -1.99322 23267 ft 360 kts 26°
2026-05-05 21:37 49.83968 -1.97481 23470 ft 371 kts 27°
2026-05-05 21:37 49.86276 -1.95614 23822 ft 376 kts 27°
2026-05-05 21:37 49.88613 -1.93720 24218 ft 380 kts 27°
2026-05-05 21:38 49.90962 -1.91818 24631 ft 383 kts 27°
2026-05-05 21:38 49.93336 -1.89900 25044 ft 386 kts 27°
2026-05-05 21:38 49.95723 -1.87970 25447 ft 389 kts 26°
2026-05-05 21:38 49.98142 -1.86017 25774 ft 393 kts 26°
2026-05-05 21:39 50.00583 -1.84045 26149 ft 397 kts 26°
2026-05-05 21:39 50.03050 -1.82071 26523 ft 400 kts 27°
2026-05-05 21:39 50.05541 -1.80100 26861 ft 402 kts 27°
2026-05-05 21:39 50.08020 -1.78144 26955 ft 394 kts 27°
2026-05-05 21:40 50.10414 -1.76255 26962 ft 377 kts 26°
2026-05-05 21:40 50.12638 -1.74280 26962 ft 361 kts 35°
2026-05-05 21:40 50.14577 -1.71863 26964 ft 354 kts 39°
2026-05-05 21:40 50.16469 -1.69410 26964 ft 352 kts 39°
2026-05-05 21:41 50.18350 -1.66970 26965 ft 352 kts 39°
2026-05-05 21:41 50.20243 -1.64518 26964 ft 354 kts 39°
2026-05-05 21:41 50.22137 -1.62063 26964 ft 355 kts 39°
2026-05-05 21:41 50.24037 -1.59593 26964 ft 355 kts 39°
2026-05-05 21:42 50.25931 -1.57127 26962 ft 355 kts 39°
2026-05-05 21:42 50.27833 -1.54655 26964 ft 355 kts 39°
2026-05-05 21:42 50.29732 -1.52193 26963 ft 355 kts 39°
2026-05-05 21:42 50.31640 -1.49723 26962 ft 355 kts 39°
2026-05-05 21:43 50.33543 -1.47261 26960 ft 355 kts 39°
2026-05-05 21:43 50.35442 -1.44799 26958 ft 355 kts 39°
2026-05-05 21:43 50.37344 -1.42326 26957 ft 355 kts 39°
2026-05-05 21:43 50.39244 -1.39851 26955 ft 355 kts 39°
2026-05-05 21:44 50.41140 -1.37380 26962 ft 354 kts 39°
2026-05-05 21:44 50.43037 -1.34904 26960 ft 354 kts 39°
2026-05-05 21:44 50.44933 -1.32429 26957 ft 355 kts 39°
2026-05-05 21:44 50.46761 -1.30044 26955 ft 355 kts 39°
2026-05-05 21:45 50.48684 -1.27532 26954 ft 355 kts 39°
2026-05-05 21:45 50.50581 -1.25048 26954 ft 356 kts 39°
2026-05-05 21:45 50.52525 -1.22499 26967 ft 372 kts 39°
2026-05-05 21:45 50.54552 -1.19845 26967 ft 387 kts 39°
2026-05-05 21:46 50.56661 -1.17083 26965 ft 400 kts 39°
2026-05-05 21:46 50.58811 -1.14258 26962 ft 401 kts 39°
2026-05-05 21:46 50.60908 -1.11489 26892 ft 385 kts 39°
2026-05-05 21:46 50.62929 -1.08814 26519 ft 374 kts 39°
2026-05-05 21:47 50.64901 -1.06198 25994 ft 368 kts 39°
2026-05-05 21:47 50.66702 -1.03336 25378 ft 367 kts 50°
2026-05-05 21:47 50.68331 -1.00190 24787 ft 364 kts 49°
2026-05-05 21:47 50.69931 -0.97104 24239 ft 361 kts 49°
2026-05-05 21:48 50.71517 -0.94048 23706 ft 358 kts 49°
2026-05-05 21:48 50.73087 -0.91022 23178 ft 353 kts 49°
2026-05-05 21:48 50.74615 -0.88077 22623 ft 349 kts 49°
2026-05-05 21:48 50.76160 -0.85097 22060 ft 345 kts 49°
2026-05-05 21:49 50.77670 -0.82182 21389 ft 341 kts 50°
2026-05-05 21:49 50.79193 -0.79328 20872 ft 337 kts 44°
2026-05-05 21:49 50.80985 -0.77005 20386 ft 332 kts 31°
2026-05-05 21:49 50.83038 -0.75411 19894 ft 328 kts 18°
2026-05-05 21:50 50.85246 -0.74598 19407 ft 324 kts
2026-05-05 21:50 50.87479 -0.74129 18919 ft 322 kts
2026-05-05 21:50 50.89700 -0.73648 18416 ft 322 kts
2026-05-05 21:50 50.91920 -0.73160 17925 ft 320 kts
2026-05-05 21:51 50.94117 -0.72677 17436 ft 318 kts
2026-05-05 21:51 50.96303 -0.72199 16956 ft 316 kts
2026-05-05 21:51 50.98469 -0.71725 16482 ft 313 kts
2026-05-05 21:51 51.00622 -0.71254 16046 ft 311 kts
2026-05-05 21:52 51.04879 -0.70325 15184 ft 307 kts
2026-05-05 21:52 51.06984 -0.69865 14756 ft 304 kts
2026-05-05 21:52 51.09075 -0.69410 14350 ft 302 kts
2026-05-05 21:53 51.11187 -0.68953 13662 ft 309 kts
2026-05-05 21:53 51.13295 -0.68494 13319 ft 302 kts
2026-05-05 21:53 51.15368 -0.68039 12976 ft 300 kts
2026-05-05 21:53 51.17429 -0.67583 12612 ft 298 kts
2026-05-05 21:54 51.19481 -0.67131 12255 ft 297 kts
2026-05-05 21:54 51.21526 -0.66682 11899 ft 295 kts
2026-05-05 21:54 51.23540 -0.66240 11550 ft 293 kts
2026-05-05 21:54 51.25596 -0.65786 11190 ft 292 kts
2026-05-05 21:55 51.27602 -0.65345 10839 ft 290 kts
2026-05-05 21:55 51.29593 -0.64909 10494 ft 288 kts
2026-05-05 21:55 51.31571 -0.64474 10135 ft 286 kts
2026-05-05 21:55 51.33537 -0.64040 9840 ft 283 kts
2026-05-05 21:56 51.35469 -0.63613 9466 ft 281 kts
2026-05-05 21:56 51.37401 -0.63184 9128 ft 278 kts
2026-05-05 21:56 51.39328 -0.62756 8784 ft 275 kts
2026-05-05 21:56 51.41210 -0.62339 8464 ft 272 kts
2026-05-05 21:57 51.43085 -0.61922 8136 ft 271 kts
2026-05-05 21:57 51.44946 -0.61510 7814 ft 269 kts
2026-05-05 21:57 51.46801 -0.61097 7493 ft 268 kts
2026-05-05 21:57 51.48647 -0.60688 7179 ft 267 kts
2026-05-05 21:58 51.50463 -0.60287 6861 ft 266 kts
2026-05-05 21:58 51.52317 -0.59875 6538 ft 265 kts
2026-05-05 21:58 51.54118 -0.59472 6211 ft 263 kts
2026-05-05 21:58 51.55932 -0.59067 5860 ft 262 kts
2026-05-05 21:59 51.57731 -0.58668 5536 ft 261 kts
2026-05-05 21:59 51.59545 -0.58263 5228 ft 259 kts
2026-05-05 21:59 51.61328 -0.57863 4920 ft 258 kts
2026-05-05 21:59 51.63104 -0.57465 4605 ft 256 kts
2026-05-05 22:00 51.64846 -0.57076 4299 ft 256 kts
2026-05-05 22:00 51.66610 -0.56683 3991 ft 255 kts
2026-05-05 22:00 51.68383 -0.56287 3672 ft 254 kts
2026-05-05 22:00 51.70114 -0.55894 3380 ft 253 kts 10°
2026-05-05 22:01 51.71859 -0.55498 3138 ft 253 kts
2026-05-05 22:01 51.73562 -0.55114 3035 ft 240 kts
2026-05-05 22:01 51.74642 -0.54872 2926 ft 232 kts
2026-05-05 22:01 51.76218 -0.54520 2808 ft 221 kts 10°
2026-05-05 22:02 51.77701 -0.54189 2708 ft 209 kts
2026-05-05 22:02 51.79080 -0.53879 2611 ft 191 kts 10°
2026-05-05 22:02 51.80348 -0.53597 2536 ft 178 kts 10°
2026-05-05 22:02 51.81545 -0.53330 2477 ft 169 kts 11°
2026-05-05 22:03 51.82665 -0.53081 2402 ft 157 kts 12°
2026-05-05 22:03 51.83698 -0.52749 2320 ft 145 kts 24°
2026-05-05 22:03 51.84517 -0.51908 2230 ft 137 kts 47°
2026-05-05 22:03 51.85046 -0.50656 2116 ft 135 kts 68°
2026-05-05 22:04 51.85315 -0.49202 1958 ft 134 kts 71°
2026-05-05 22:04 51.85567 -0.47761 1828 ft 132 kts 72°
2026-05-05 22:04 51.85818 -0.46323 1624 ft 133 kts 71°
2026-05-05 22:04 51.86063 -0.44911 1422 ft 127 kts 71°
2026-05-05 22:05 51.86305 -0.43517 1227 ft 131 kts 72°
2026-05-05 22:05 51.86545 -0.42110 1054 ft 131 kts 70°
2026-05-05 22:05 51.86796 -0.40675 870 ft 133 kts 71°
2026-05-05 22:05 51.87046 -0.39243 677 ft 133 kts 71°
2026-05-05 22:06 51.87285 -0.37847 530 ft 122 kts 70°
2026-05-05 22:06 51.87496 -0.36547 636 ft 132 kts 70°
2026-05-05 22:06 51.87782 -0.34952 1176 ft 157 kts 71°
2026-05-05 22:06 51.88075 -0.33270 2221 ft 154 kts 72°
2026-05-05 22:07 51.88462 -0.31552 2563 ft 169 kts 64°
2026-05-05 22:07 51.89207 -0.30089 2818 ft 174 kts 31°
2026-05-05 22:07 51.90410 -0.29765 2971 ft 183 kts 352°
2026-05-05 22:07 51.91509 -0.30834 3006 ft 193 kts 312°
2026-05-05 22:08 51.91968 -0.32876 3006 ft 200 kts 271°
2026-05-05 22:08 51.91750 -0.35214 3010 ft 227 kts 257°
2026-05-05 22:08 51.91340 -0.37751 3013 ft 239 kts 255°
2026-05-05 22:08 51.90887 -0.40397 3009 ft 242 kts 255°
2026-05-05 22:09 51.90446 -0.42953 2926 ft 230 kts 255°
2026-05-05 22:09 51.90026 -0.45430 2793 ft 220 kts 255°
2026-05-05 22:09 51.89625 -0.47742 2666 ft 213 kts 255°
2026-05-05 22:09 51.89230 -0.50026 2546 ft 208 kts 255°
2026-05-05 22:10 51.88757 -0.52199 2403 ft 203 kts 235°
2026-05-05 22:10 51.87710 -0.53592 2300 ft 189 kts 195°
2026-05-05 22:10 51.86495 -0.53615 2204 ft 168 kts 155°
2026-05-05 22:10 51.85601 -0.52644 2171 ft 147 kts 123°
2026-05-05 22:11 51.85180 -0.51233 2105 ft 135 kts 95°
2026-05-05 22:11 51.85219 -0.49752 1997 ft 132 kts 70°
2026-05-05 22:11 51.85471 -0.48314 1846 ft 133 kts 72°
2026-05-05 22:11 51.85721 -0.46878 1711 ft 133 kts 71°
2026-05-05 22:12 51.85967 -0.45465 1496 ft 125 kts 71°
2026-05-05 22:12 51.86203 -0.44109 1307 ft 128 kts 71°
2026-05-05 22:12 51.86442 -0.42715 1155 ft 129 kts 71°
2026-05-05 22:12 51.86683 -0.41317 951 ft 130 kts 71°
2026-05-05 22:13 51.86930 -0.39915 793 ft 129 kts 71°
2026-05-05 22:13 51.87172 -0.38520 576 ft 128 kts 72°
2026-05-05 22:13 51.87387 -0.37224 523 ft 106 kts 71°
2026-05-05 22:13 51.87605 -0.36039 632 ft 128 kts 73°
2026-05-05 22:14 51.87813 -0.34596 1425 ft 137 kts 75°
2026-05-05 22:14 51.88055 -0.32999 2127 ft 162 kts 74°
2026-05-05 22:14 51.88468 -0.31216 2417 ft 176 kts 52°
2026-05-05 22:14 51.89495 -0.30135 2679 ft 184 kts 14°
2026-05-05 22:15 51.90851 -0.30404 2921 ft 216 kts 339°
2026-05-05 22:15 51.92023 -0.32042 2998 ft 232 kts 305°
2026-05-05 22:15 51.92495 -0.34556 3007 ft 239 kts 271°
2026-05-05 22:15 51.92236 -0.37237 3014 ft 250 kts 257°
2026-05-05 22:16 51.91771 -0.40096 3009 ft 269 kts 255°
2026-05-05 22:16 51.91272 -0.43042 3007 ft 272 kts 255°
2026-05-05 22:16 51.90781 -0.45946 2890 ft 260 kts 255°
2026-05-05 22:16 51.90311 -0.48705 2764 ft 249 kts 255°
2026-05-05 22:17 51.89858 -0.51337 2624 ft 238 kts 255°
2026-05-05 22:17 51.89423 -0.53849 2503 ft 228 kts 255°
2026-05-05 22:17 51.88959 -0.56264 2397 ft 217 kts 244°
2026-05-05 22:17 51.87971 -0.57972 2255 ft 204 kts 204°
2026-05-05 22:18 51.86654 -0.58364 2124 ft 187 kts 167°
2026-05-05 22:18 51.85489 -0.57619 2038 ft 172 kts 136°
2026-05-05 22:18 51.84752 -0.56201 2004 ft 161 kts 109°
2026-05-05 22:18 51.84495 -0.54482 2013 ft 157 kts 85°
2026-05-05 22:19 51.84692 -0.52775 2012 ft 154 kts 72°
2026-05-05 22:19 51.84974 -0.51161 2008 ft 141 kts 72°
2026-05-05 22:19 51.85234 -0.49672 1977 ft 135 kts 71°
2026-05-05 22:19 51.85479 -0.48268 1806 ft 126 kts 72°
2026-05-05 22:20 51.85714 -0.46915 1609 ft 124 kts 72°
2026-05-05 22:20 51.85942 -0.45584 1460 ft 122 kts 71°
2026-05-05 22:20 51.86175 -0.44253 1277 ft 127 kts 72°
2026-05-05 22:20 51.86415 -0.42866 1122 ft 128 kts 70°
2026-05-05 22:21 51.86658 -0.41469 957 ft 129 kts 70°
2026-05-05 22:21 51.86904 -0.40065 807 ft 129 kts 71°
2026-05-05 22:21 51.87147 -0.38664 580 ft 128 kts 72°
2026-05-05 22:21 51.87375 -0.37350 522 ft 103 kts 71°
2026-05-05 22:22 51.87521 -0.36510 524 ft 55 kts 74°
2026-05-05 22:22 51.87596 -0.36066 516 ft 31 kts 74°
2026-05-05 22:22 51.87650 -0.35921 516 ft 13 kts 14°
2026-05-05 22:22 51.87741 -0.35959 516 ft 15 kts 331°
2026-05-05 22:23 51.87781 -0.36051 518 ft 7 kts 276°
2026-05-05 22:23 51.87776 -0.36121 518 ft 7 kts 256°
2026-05-05 22:23 51.87747 -0.36293 518 ft 23 kts 253°
2026-05-05 22:23 51.87703 -0.36547 520 ft 23 kts 256°
2026-05-05 22:24 51.87659 -0.36800 524 ft 23 kts 253°
2026-05-05 22:24 51.87615 -0.37060 522 ft 27 kts 254°
2026-05-05 22:24 51.87580 -0.37341 522 ft 22 kts 279°
2026-05-05 22:24 51.87655 -0.37486 522 ft 16 kts 326°
2026-05-05 22:25 51.87722 -0.37646 521 ft 18 kts 296°
2026-05-05 22:25 51.87764 -0.37794 523 ft 9 kts 294°
2026-05-05 22:25 51.87791 -0.37807 523 ft 4 kts 20°
2026-05-05 22:25 51.87820 -0.37785 523 ft 5 kts 25°
2026-05-05 22:26 51.87824 -0.37782 523 ft 0 kts 25°